Newberry, MI

5:35 PM EST on November 19, 2017 (GMT -0500)
Luce County

Weather History for KERY - March, 2013

Change the Weather History Date:

Saturday, March 2, 2013

  Actual Average Record
Temperature  
Mean Temperature 14 °F -  
Max Temperature 21 °F 29 °F 46 °F (1964)
Min Temperature 8 °F 12 °F -20 °F (2014)
Degree Days  
Heating Degree Days 50    
Moisture  
Dew Point 11 °F    
Average Humidity 82    
Maximum Humidity 93    
Minimum Humidity 68    
Precipitation  
Precipitation 0.00 in - - ()
Sea Level Pressure  
Sea Level Pressure 30.17 in    
Wind  
Wind Speed 7 mph (NNW)    
Max Wind Speed 14 mph    
Max Gust Speed 21 mph    
Visibility 10 miles    
Events Snow    
Averages and records for this station are not official NWS values.
T = Trace of Precipitation, MM = Missing Value Source: NWS Daily Summary

Daily Weather History Graph

Daily Weather History Graph

Search for Another Location

Airport or City:

Trip Planner

Search our weather history database for the weather conditions in past years. The results will help you decide how hot, cold, wet, or windy it might be!

Date:

Astronomy

Mar. 02, 2013 Rise Set
Actual Time 7:18 AM EST 6:29 PM EST
Civil Twilight 6:48 AM EST 6:59 PM EST
Nautical Twilight 6:13 AM EST 7:34 PM EST
Astronomical Twilight 5:38 AM EST 8:09 PM EST
Moon No Moon Rise 9:26 AM EST (3/2)
Length of Visible Light 12h 11m
Length of Day
11h 11m
Waning Gibbous, 74% of the Moon is Illuminated
Mar 2
Waning Gibbous
Mar 4
Last Quarter
Mar 11
New
Mar 19
First Quarter
Mar 27
Full

Hourly Weather History & Observations

Time (EST) Temp. Windchill Dew Point Humidity Pressure Visibility Wind Dir Wind Speed Gust Speed Precip Events Conditions
12:14 AM 14.0 °F 5.1 °F 6.8 °F 73% 30.22 in 10.0 mi North 5.8 mph - N/A   Clear
12:35 AM 14.0 °F 5.1 °F 6.8 °F 73% 30.22 in 10.0 mi North 5.8 mph - N/A   Clear
12:55 AM 12.2 °F 1.7 °F 6.8 °F 79% 30.22 in 10.0 mi North 6.9 mph - N/A   Clear
1:14 AM 12.2 °F 2.9 °F 6.8 °F 79% 30.22 in 10.0 mi North 5.8 mph - N/A   Clear
1:35 AM 12.2 °F 4.3 °F 6.8 °F 79% 30.22 in 10.0 mi North 4.6 mph - N/A   Clear
1:55 AM 12.2 °F 2.9 °F 6.8 °F 79% 30.22 in 10.0 mi North 5.8 mph - N/A   Clear
2:14 AM 10.4 °F 0.8 °F 6.8 °F 85% 30.22 in 10.0 mi North 5.8 mph - N/A   Clear
2:35 AM 10.4 °F 0.8 °F 6.8 °F 85% 30.22 in 10.0 mi North 5.8 mph - N/A   Clear
2:55 AM 10.4 °F 0.8 °F 6.8 °F 85% 30.22 in 10.0 mi North 5.8 mph - N/A   Clear
3:14 AM 10.4 °F 2.2 °F 6.8 °F 85% 30.21 in 10.0 mi North 4.6 mph - N/A   Clear
3:35 AM 10.4 °F 2.2 °F 6.8 °F 85% 30.21 in 10.0 mi North 4.6 mph - N/A   Clear
3:54 AM 10.4 °F 2.2 °F 6.8 °F 85% 30.20 in 10.0 mi North 4.6 mph - N/A   Clear
4:14 AM 10.4 °F 2.2 °F 6.8 °F 85% 30.20 in 10.0 mi North 4.6 mph - N/A   Clear
4:35 AM 8.6 °F -1.3 °F 6.8 °F 92% 30.20 in 10.0 mi North 5.8 mph - N/A   Scattered Clouds
4:54 AM 8.6 °F -2.6 °F 6.8 °F 92% 30.20 in 10.0 mi North 6.9 mph - N/A   Mostly Cloudy
5:14 AM 8.6 °F -1.3 °F 6.8 °F 92% 30.19 in 10.0 mi NNE 5.8 mph - N/A Snow Light Snow
5:35 AM 10.4 °F -1.5 °F 6.8 °F 85% 30.20 in 10.0 mi North 8.1 mph - N/A Snow Light Snow
5:54 AM 10.4 °F 0.8 °F 8.6 °F 92% 30.20 in 10.0 mi North 5.8 mph - N/A Snow Light Snow
6:15 AM 10.4 °F -0.4 °F 8.6 °F 92% 30.20 in 10.0 mi NNE 6.9 mph - N/A Snow Light Snow
6:35 AM 10.4 °F 0.8 °F 8.6 °F 92% 30.21 in 10.0 mi North 5.8 mph - N/A Snow Light Snow
6:54 AM 10.4 °F 0.8 °F 8.6 °F 92% 30.21 in 10.0 mi NNE 5.8 mph - N/A Snow Light Snow
7:15 AM 12.2 °F 0.7 °F 8.6 °F 85% 30.21 in 10.0 mi North 8.1 mph - N/A Snow Light Snow
7:34 AM 12.2 °F 1.7 °F 10.4 °F 92% 30.21 in 10.0 mi North 6.9 mph - N/A Snow Light Snow
7:54 AM 12.2 °F 1.7 °F 10.4 °F 92% 30.21 in 10.0 mi North 6.9 mph - N/A Snow Light Snow
8:15 AM 12.2 °F 1.7 °F 10.4 °F 92% 30.21 in 7.0 mi North 6.9 mph - N/A Snow Light Snow
8:34 AM 12.2 °F 0.7 °F 10.4 °F 92% 30.21 in 10.0 mi North 8.1 mph - N/A Snow Light Snow
8:54 AM 14.0 °F 1.2 °F 10.4 °F 86% 30.20 in 7.0 mi NNW 10.4 mph 16.1 mph N/A Snow Light Snow
9:15 AM 14.0 °F 2.9 °F 12.2 °F 93% 30.20 in 7.0 mi NNW 8.1 mph - N/A Snow Light Snow
9:34 AM 15.8 °F 5.1 °F 12.2 °F 86% 30.20 in 10.0 mi NNW 8.1 mph - N/A Snow Light Snow
9:54 AM 15.8 °F 3.4 °F 12.2 °F 86% 30.19 in 10.0 mi North 10.4 mph - N/A Snow Light Snow
10:15 AM 15.8 °F 5.1 °F 12.2 °F 86% 30.19 in 10.0 mi North 8.1 mph - N/A Snow Light Snow
10:34 AM 17.6 °F 5.7 °F 12.2 °F 79% 30.19 in 10.0 mi North 10.4 mph - N/A   Overcast
10:55 AM 17.6 °F 6.4 °F 14.0 °F 86% 30.19 in 10.0 mi NW 9.2 mph - N/A   Overcast
11:15 AM 17.6 °F 8.2 °F 14.0 °F 86% 30.19 in 10.0 mi NNW 6.9 mph - N/A   Overcast
11:34 AM 17.6 °F 8.2 °F 14.0 °F 86% 30.19 in 10.0 mi North 6.9 mph - N/A Snow Light Snow
11:55 AM 17.6 °F 6.4 °F 14.0 °F 86% 30.19 in 10.0 mi NNW 9.2 mph 17.3 mph N/A Snow Light Snow
12:14 PM 17.6 °F 6.4 °F 14.0 °F 86% 30.19 in 10.0 mi NW 9.2 mph - N/A Snow Light Snow
12:35 PM 19.4 °F 8.6 °F 14.0 °F 80% 30.18 in 10.0 mi WNW 9.2 mph 18.4 mph N/A   Overcast
12:54 PM 19.4 °F 8.6 °F 14.0 °F 80% 30.17 in 10.0 mi NW 9.2 mph - N/A   Overcast
1:15 PM 19.4 °F 8.6 °F 14.0 °F 80% 30.16 in 10.0 mi NNW 9.2 mph - N/A   Mostly Cloudy
1:35 PM 21.2 °F 10.1 °F 15.8 °F 80% 30.16 in 10.0 mi NW 10.4 mph 18.4 mph N/A   Mostly Cloudy
1:54 PM 21.2 °F 8.9 °F 15.8 °F 80% 30.16 in 10.0 mi NNW 12.7 mph 17.3 mph N/A   Mostly Cloudy
2:15 PM 21.2 °F 9.5 °F 15.8 °F 80% 30.15 in 10.0 mi North 11.5 mph 18.4 mph N/A   Mostly Cloudy
2:35 PM 19.4 °F 7.9 °F 15.8 °F 86% 30.15 in 10.0 mi North 10.4 mph - N/A   Overcast
2:54 PM 19.4 °F 7.9 °F 15.8 °F 86% 30.15 in 10.0 mi NW 10.4 mph 18.4 mph N/A   Overcast
3:15 PM 19.4 °F 7.9 °F 15.8 °F 86% 30.15 in 10.0 mi NW 10.4 mph 18.4 mph N/A   Overcast
3:34 PM 19.4 °F 6.6 °F 15.8 °F 86% 30.15 in 10.0 mi NNW 12.7 mph 19.6 mph N/A   Overcast
3:54 PM 19.4 °F 7.9 °F 15.8 °F 86% 30.15 in 10.0 mi NNW 10.4 mph 18.4 mph N/A   Overcast
4:15 PM 19.4 °F 6.6 °F 14.0 °F 80% 30.15 in 10.0 mi NNW 12.7 mph 18.4 mph N/A Snow Light Snow
4:34 PM 19.4 °F 6.0 °F 14.0 °F 80% 30.14 in 10.0 mi NNW 13.8 mph 20.7 mph N/A   Overcast
4:55 PM 19.4 °F 7.2 °F 12.2 °F 74% 30.15 in 10.0 mi NW 11.5 mph - N/A   Overcast
5:15 PM 19.4 °F 7.9 °F 12.2 °F 74% 30.15 in 10.0 mi NNW 10.4 mph 19.6 mph N/A   Overcast
5:34 PM 19.4 °F 8.6 °F 14.0 °F 80% 30.15 in 10.0 mi North 9.2 mph 17.3 mph N/A   Overcast
5:55 PM 19.4 °F 8.6 °F 14.0 °F 80% 30.15 in 10.0 mi NNW 9.2 mph 18.4 mph N/A Snow Light Snow
6:14 PM 19.4 °F 8.6 °F 12.2 °F 74% 30.15 in 10.0 mi NNW 9.2 mph 17.3 mph N/A Snow Light Snow
6:35 PM 19.4 °F 10.4 °F 12.2 °F 74% 30.15 in 10.0 mi NW 6.9 mph - N/A   Mostly Cloudy
6:54 PM 17.6 °F 9.3 °F 12.2 °F 79% 30.15 in 10.0 mi NW 5.8 mph - N/A   Scattered Clouds
7:15 PM 17.6 °F 10.7 °F 10.4 °F 73% 30.14 in 10.0 mi NW 4.6 mph - N/A   Clear
7:34 PM 15.8 °F 8.6 °F 10.4 °F 79% 30.14 in 10.0 mi NW 4.6 mph - N/A   Clear
7:55 PM 15.8 °F 7.2 °F 10.4 °F 79% 30.13 in 10.0 mi WNW 5.8 mph - N/A   Clear
8:15 PM 15.8 °F 7.2 °F 8.6 °F 73% 30.13 in 10.0 mi WNW 5.8 mph - N/A   Clear
8:34 PM 15.8 °F 7.2 °F 8.6 °F 73% 30.13 in 10.0 mi WNW 5.8 mph - N/A   Clear
8:55 PM 15.8 °F 6.1 °F 8.6 °F 73% 30.12 in 10.0 mi NW 6.9 mph - N/A   Clear
9:14 PM 15.8 °F 6.1 °F 8.6 °F 73% 30.12 in 10.0 mi WNW 6.9 mph - N/A   Clear
9:34 PM 15.8 °F 7.2 °F 8.6 °F 73% 30.12 in 10.0 mi NW 5.8 mph - N/A   Clear
9:55 PM 15.8 °F 7.2 °F 8.6 °F 73% 30.11 in 10.0 mi NW 5.8 mph - N/A   Clear
10:14 PM 15.8 °F 6.1 °F 8.6 °F 73% 30.11 in 10.0 mi NW 6.9 mph - N/A   Clear
10:35 PM 15.8 °F 7.2 °F 8.6 °F 73% 30.11 in 10.0 mi NW 5.8 mph - N/A   Clear
10:54 PM 15.8 °F 7.2 °F 8.6 °F 73% 30.10 in 10.0 mi NW 5.8 mph - N/A   Clear
11:15 PM 15.8 °F 8.6 °F 8.6 °F 73% 30.10 in 10.0 mi NNW 4.6 mph - N/A   Clear
11:35 PM 15.8 °F 7.2 °F 6.8 °F 68% 30.10 in 10.0 mi NW 5.8 mph - N/A   Clear
11:54 PM 14.0 °F 5.1 °F 6.8 °F 73% 30.09 in 10.0 mi NNW 5.8 mph - N/A   Clear